Torna al catalogo

ARIANE 44L DEB

AttivoHEO
NORAD 27673·DEBRIS·🇫🇷 France

Lanciato Oct 29, 1991 da Guiana Space Centre

Loading…

Prossimi Passaggi (prossime 24 ore)

TLE

AggiornatoSource: Space-Track

Epoca: Sep 11, 2026, 12:41 UTC

1 27673U 91075J   26254.52868335 -.00000190  00000-0 -53326-3 0  9990
2 27673   6.9117   6.6632 6646105  22.7531 356.3539  2.89080399124854

Traccia ARIANE 44L DEB in tempo reale con AllMySat

Download on the App Store